owner,sensor,date,latitude,longitude,sea_surface_height_above_sea_level,qcFlag 
TCOON,ioos:station:TCOON:068:1,2017-05-01T00:18:00Z,27.2970,-97.4049,4.322,1111122 
TCOON,ioos:station:TCOON:068:1,2017-05-01T01:18:00Z,27.2970,-97.4049,4.315,1111122 
TCOON,ioos:station:TCOON:068:1,2017-05-01T02:18:00Z,27.2970,-97.4049,4.31,1111122 
TCOON,ioos:station:TCOON:068:1,2017-05-01T03:18:00Z,27.2970,-97.4049,4.318,1111122 
TCOON,ioos:station:TCOON:068:1,2017-05-01T04:24:00Z,27.2970,-97.4049,4.33,1111122 
TCOON,ioos:station:TCOON:068:1,2017-05-01T05:18:00Z,27.2970,-97.4049,4.344,1111122 
TCOON,ioos:station:TCOON:068:1,2017-05-01T06:18:00Z,27.2970,-97.4049,4.352,1111122 
TCOON,ioos:station:TCOON:068:1,2017-05-01T07:18:00Z,27.2970,-97.4049,4.362,1111122 
TCOON,ioos:station:TCOON:068:1,2017-05-01T08:24:00Z,27.2970,-97.4049,4.364,1111122 
TCOON,ioos:station:TCOON:068:1,2017-05-01T09:24:00Z,27.2970,-97.4049,4.359,1111122 
TCOON,ioos:station:TCOON:068:1,2017-05-01T10:24:00Z,27.2970,-97.4049,4.352,1111122 
TCOON,ioos:station:TCOON:068:1,2017-05-01T11:24:00Z,27.2970,-97.4049,4.351,1111122 
TCOON,ioos:station:TCOON:068:1,2017-05-01T12:24:00Z,27.2970,-97.4049,4.363,1111122 
TCOON,ioos:station:TCOON:068:1,2017-05-01T13:18:00Z,27.2970,-97.4049,4.367,1111122 
TCOON,ioos:station:TCOON:068:1,2017-05-01T14:18:00Z,27.2970,-97.4049,4.361,1111122 
TCOON,ioos:station:TCOON:068:1,2017-05-01T15:18:00Z,27.2970,-97.4049,4.372,1111122 
TCOON,ioos:station:TCOON:068:1,2017-05-01T16:18:00Z,27.2970,-97.4049,4.363,1111122 
TCOON,ioos:station:TCOON:068:1,2017-05-01T17:18:00Z,27.2970,-97.4049,4.349,1111122 
TCOON,ioos:station:TCOON:068:1,2017-05-01T18:18:00Z,27.2970,-97.4049,4.339,1111122 
TCOON,ioos:station:TCOON:068:1,2017-05-01T19:18:00Z,27.2970,-97.4049,4.331,1111122 
TCOON,ioos:station:TCOON:068:1,2017-05-01T20:18:00Z,27.2970,-97.4049,4.325,1111122 
TCOON,ioos:station:TCOON:068:1,2017-05-01T21:18:00Z,27.2970,-97.4049,4.323,1111122 
TCOON,ioos:station:TCOON:068:1,2017-05-01T22:18:00Z,27.2970,-97.4049,4.328,1111122 
TCOON,ioos:station:TCOON:068:1,2017-05-01T23:18:00Z,27.2970,-97.4049,4.326,1111122 
TCOON,ioos:station:TCOON:068:1,2017-05-02T00:18:00Z,27.2970,-97.4049,4.32,1111122 
TCOON,ioos:station:TCOON:068:1,2017-05-02T01:18:00Z,27.2970,-97.4049,4.319,1111122 
TCOON,ioos:station:TCOON:068:1,2017-05-02T02:18:00Z,27.2970,-97.4049,4.331,1111122 
TCOON,ioos:station:TCOON:068:1,2017-05-02T03:18:00Z,27.2970,-97.4049,4.34,1111122 
TCOON,ioos:station:TCOON:068:1,2017-05-02T04:18:00Z,27.2970,-97.4049,4.343,1111122 
TCOON,ioos:station:TCOON:068:1,2017-05-02T05:18:00Z,27.2970,-97.4049,4.346,1111122 
TCOON,ioos:station:TCOON:068:1,2017-05-02T06:18:00Z,27.2970,-97.4049,4.353,1111122 
TCOON,ioos:station:TCOON:068:1,2017-05-02T07:18:00Z,27.2970,-97.4049,4.352,1111122 
TCOON,ioos:station:TCOON:068:1,2017-05-02T08:18:00Z,27.2970,-97.4049,4.349,1111122 
TCOON,ioos:station:TCOON:068:1,2017-05-02T09:18:00Z,27.2970,-97.4049,4.347,1111122 
TCOON,ioos:station:TCOON:068:1,2017-05-02T10:18:00Z,27.2970,-97.4049,4.341,1111122 
TCOON,ioos:station:TCOON:068:1,2017-05-02T11:18:00Z,27.2970,-97.4049,4.339,1111122 
TCOON,ioos:station:TCOON:068:1,2017-05-02T12:18:00Z,27.2970,-97.4049,4.337,1111122 
TCOON,ioos:station:TCOON:068:1,2017-05-02T13:18:00Z,27.2970,-97.4049,4.336,1111122 
TCOON,ioos:station:TCOON:068:1,2017-05-02T14:18:00Z,27.2970,-97.4049,4.334,1111122 
TCOON,ioos:station:TCOON:068:1,2017-05-02T15:18:00Z,27.2970,-97.4049,4.326,1111122 
TCOON,ioos:station:TCOON:068:1,2017-05-02T16:18:00Z,27.2970,-97.4049,4.318,1111122 
TCOON,ioos:station:TCOON:068:1,2017-05-02T17:18:00Z,27.2970,-97.4049,4.307,1111122 
TCOON,ioos:station:TCOON:068:1,2017-05-02T18:18:00Z,27.2970,-97.4049,4.308,1111122 
TCOON,ioos:station:TCOON:068:1,2017-05-02T19:18:00Z,27.2970,-97.4049,4.306,1111122 
TCOON,ioos:station:TCOON:068:1,2017-05-02T20:18:00Z,27.2970,-97.4049,4.307,1111122 
TCOON,ioos:station:TCOON:068:1,2017-05-02T21:18:00Z,27.2970,-97.4049,4.306,1111122 
TCOON,ioos:station:TCOON:068:1,2017-05-02T22:18:00Z,27.2970,-97.4049,4.306,1111122 
TCOON,ioos:station:TCOON:068:1,2017-05-02T23:18:00Z,27.2970,-97.4049,4.305,1111122 
TCOON,ioos:station:TCOON:068:1,2017-05-03T00:18:00Z,27.2970,-97.4049,4.306,1111122 
TCOON,ioos:station:TCOON:068:1,2017-05-03T01:18:00Z,27.2970,-97.4049,4.312,1111122 
TCOON,ioos:station:TCOON:068:1,2017-05-03T02:18:00Z,27.2970,-97.4049,4.319,1111122 
TCOON,ioos:station:TCOON:068:1,2017-05-03T03:18:00Z,27.2970,-97.4049,4.326,1111122 
TCOON,ioos:station:TCOON:068:1,2017-05-03T04:18:00Z,27.2970,-97.4049,4.332,1111122 
TCOON,ioos:station:TCOON:068:1,2017-05-03T05:18:00Z,27.2970,-97.4049,4.333,1111122 
TCOON,ioos:station:TCOON:068:1,2017-05-03T06:18:00Z,27.2970,-97.4049,4.334,1111122 
TCOON,ioos:station:TCOON:068:1,2017-05-03T07:18:00Z,27.2970,-97.4049,4.333,1111122 
TCOON,ioos:station:TCOON:068:1,2017-05-03T08:18:00Z,27.2970,-97.4049,4.341,1111122 
TCOON,ioos:station:TCOON:068:1,2017-05-03T09:18:00Z,27.2970,-97.4049,4.345,1111122 
TCOON,ioos:station:TCOON:068:1,2017-05-03T10:18:00Z,27.2970,-97.4049,4.34,1111122 
TCOON,ioos:station:TCOON:068:1,2017-05-03T11:18:00Z,27.2970,-97.4049,4.344,1111122 
TCOON,ioos:station:TCOON:068:1,2017-05-03T12:18:00Z,27.2970,-97.4049,4.347,1111122 
TCOON,ioos:station:TCOON:068:1,2017-05-03T13:18:00Z,27.2970,-97.4049,4.354,1111122 
TCOON,ioos:station:TCOON:068:1,2017-05-03T14:18:00Z,27.2970,-97.4049,4.357,1111122 
TCOON,ioos:station:TCOON:068:1,2017-05-03T15:18:00Z,27.2970,-97.4049,4.354,1111122 
TCOON,ioos:station:TCOON:068:1,2017-05-03T16:18:00Z,27.2970,-97.4049,4.335,1111122 
TCOON,ioos:station:TCOON:068:1,2017-05-03T17:18:00Z,27.2970,-97.4049,4.333,1111122 
TCOON,ioos:station:TCOON:068:1,2017-05-03T18:18:00Z,27.2970,-97.4049,4.334,1111122 
TCOON,ioos:station:TCOON:068:1,2017-05-03T19:18:00Z,27.2970,-97.4049,4.329,1111122 
TCOON,ioos:station:TCOON:068:1,2017-05-03T20:18:00Z,27.2970,-97.4049,4.334,1111122 
TCOON,ioos:station:TCOON:068:1,2017-05-03T21:18:00Z,27.2970,-97.4049,4.336,1111122 
TCOON,ioos:station:TCOON:068:1,2017-05-04T01:18:00Z,27.2970,-97.4049,4.316,1111122 
TCOON,ioos:station:TCOON:068:1,2017-05-04T02:18:00Z,27.2970,-97.4049,4.333,1111122 
TCOON,ioos:station:TCOON:068:1,2017-05-04T03:18:00Z,27.2970,-97.4049,4.347,1111122 
TCOON,ioos:station:TCOON:068:1,2017-05-04T04:18:00Z,27.2970,-97.4049,4.354,1111122 
TCOON,ioos:station:TCOON:068:1,2017-05-04T05:18:00Z,27.2970,-97.4049,4.36,1111122 
TCOON,ioos:station:TCOON:068:1,2017-05-04T06:18:00Z,27.2970,-97.4049,4.319,1111122 
TCOON,ioos:station:TCOON:068:1,2017-05-04T07:18:00Z,27.2970,-97.4049,4.298,1111122 
TCOON,ioos:station:TCOON:068:1,2017-05-04T08:18:00Z,27.2970,-97.4049,4.362,1111122 
TCOON,ioos:station:TCOON:068:1,2017-05-04T09:18:00Z,27.2970,-97.4049,4.37,1111122 
TCOON,ioos:station:TCOON:068:1,2017-05-04T10:18:00Z,27.2970,-97.4049,4.367,1111122 
TCOON,ioos:station:TCOON:068:1,2017-05-04T11:18:00Z,27.2970,-97.4049,4.393,1111122 
TCOON,ioos:station:TCOON:068:1,2017-05-04T12:18:00Z,27.2970,-97.4049,4.394,1111122 
TCOON,ioos:station:TCOON:068:1,2017-05-04T14:42:00Z,27.2970,-97.4049,4.389,1111122 
TCOON,ioos:station:TCOON:068:1,2017-05-04T15:18:00Z,27.2970,-97.4049,4.387,1111122 
TCOON,ioos:station:TCOON:068:1,2017-05-04T16:18:00Z,27.2970,-97.4049,4.387,1111122 
TCOON,ioos:station:TCOON:068:1,2017-05-04T17:18:00Z,27.2970,-97.4049,4.405,1111122 
TCOON,ioos:station:TCOON:068:1,2017-05-04T18:12:00Z,27.2970,-97.4049,4.417,1111122 
TCOON,ioos:station:TCOON:068:1,2017-05-04T19:18:00Z,27.2970,-97.4049,4.417,1111122 
TCOON,ioos:station:TCOON:068:1,2017-05-04T20:12:00Z,27.2970,-97.4049,4.415,1111122 
TCOON,ioos:station:TCOON:068:1,2017-05-04T21:18:00Z,27.2970,-97.4049,4.42,1111122 
TCOON,ioos:station:TCOON:068:1,2017-05-04T22:18:00Z,27.2970,-97.4049,4.413,1111122 
TCOON,ioos:station:TCOON:068:1,2017-05-04T23:18:00Z,27.2970,-97.4049,4.404,1111122 
TCOON,ioos:station:TCOON:068:1,2017-05-05T00:18:00Z,27.2970,-97.4049,4.386,1111122 
TCOON,ioos:station:TCOON:068:1,2017-05-05T01:12:00Z,27.2970,-97.4049,4.379,1111122 
TCOON,ioos:station:TCOON:068:1,2017-05-05T02:12:00Z,27.2970,-97.4049,4.375,1111122 
TCOON,ioos:station:TCOON:068:1,2017-05-05T03:18:00Z,27.2970,-97.4049,4.376,1111122 
TCOON,ioos:station:TCOON:068:1,2017-05-05T05:18:00Z,27.2970,-97.4049,4.393,1111122 
TCOON,ioos:station:TCOON:068:1,2017-05-05T06:18:00Z,27.2970,-97.4049,4.397,1111122 
TCOON,ioos:station:TCOON:068:1,2017-05-05T07:18:00Z,27.2970,-97.4049,4.406,1111122 
TCOON,ioos:station:TCOON:068:1,2017-05-05T08:12:00Z,27.2970,-97.4049,4.403,1111122 
TCOON,ioos:station:TCOON:068:1,2017-05-05T09:18:00Z,27.2970,-97.4049,4.403,1111122 
TCOON,ioos:station:TCOON:068:1,2017-05-05T10:18:00Z,27.2970,-97.4049,4.401,1111122 
TCOON,ioos:station:TCOON:068:1,2017-05-05T11:18:00Z,27.2970,-97.4049,4.401,1111122 
TCOON,ioos:station:TCOON:068:1,2017-05-05T13:12:00Z,27.2970,-97.4049,4.396,1111122 
TCOON,ioos:station:TCOON:068:1,2017-05-05T14:18:00Z,27.2970,-97.4049,4.393,1111122 
TCOON,ioos:station:TCOON:068:1,2017-05-05T16:24:00Z,27.2970,-97.4049,4.375,1111122 
TCOON,ioos:station:TCOON:068:1,2017-05-05T17:18:00Z,27.2970,-97.4049,4.37,1111122 
TCOON,ioos:station:TCOON:068:1,2017-05-05T18:18:00Z,27.2970,-97.4049,4.372,1111122 
TCOON,ioos:station:TCOON:068:1,2017-05-05T19:18:00Z,27.2970,-97.4049,4.381,1111122 
TCOON,ioos:station:TCOON:068:1,2017-05-05T20:36:00Z,27.2970,-97.4049,4.371,1111122 
TCOON,ioos:station:TCOON:068:1,2017-05-05T21:30:00Z,27.2970,-97.4049,4.37,1111122 
TCOON,ioos:station:TCOON:068:1,2017-05-05T22:30:00Z,27.2970,-97.4049,4.357,1111122 
TCOON,ioos:station:TCOON:068:1,2017-05-05T23:30:00Z,27.2970,-97.4049,4.342,1111122 
TCOON,ioos:station:TCOON:068:1,2017-05-06T00:30:00Z,27.2970,-97.4049,4.344,1111122 
TCOON,ioos:station:TCOON:068:1,2017-05-06T02:00:00Z,27.2970,-97.4049,4.355,1111122 
TCOON,ioos:station:TCOON:068:1,2017-05-06T02:24:00Z,27.2970,-97.4049,4.36,1111122 
TCOON,ioos:station:TCOON:068:1,2017-05-06T03:30:00Z,27.2970,-97.4049,4.369,1111122 
TCOON,ioos:station:TCOON:068:1,2017-05-06T04:42:00Z,27.2970,-97.4049,4.367,1111122 
TCOON,ioos:station:TCOON:068:1,2017-05-06T06:00:00Z,27.2970,-97.4049,4.359,1111122 
TCOON,ioos:station:TCOON:068:1,2017-05-06T06:30:00Z,27.2970,-97.4049,4.359,1111122 
TCOON,ioos:station:TCOON:068:1,2017-05-06T07:18:00Z,27.2970,-97.4049,4.36,1111122 
TCOON,ioos:station:TCOON:068:1,2017-05-06T08:18:00Z,27.2970,-97.4049,4.357,1111122 
TCOON,ioos:station:TCOON:068:1,2017-05-06T09:24:00Z,27.2970,-97.4049,4.357,1111122 
TCOON,ioos:station:TCOON:068:1,2017-05-06T10:24:00Z,27.2970,-97.4049,4.353,1111122 
TCOON,ioos:station:TCOON:068:1,2017-05-06T11:24:00Z,27.2970,-97.4049,4.35,1111122 
TCOON,ioos:station:TCOON:068:1,2017-05-06T12:30:00Z,27.2970,-97.4049,4.348,1111122 
TCOON,ioos:station:TCOON:068:1,2017-05-06T13:24:00Z,27.2970,-97.4049,4.345,1111122 
TCOON,ioos:station:TCOON:068:1,2017-05-06T14:24:00Z,27.2970,-97.4049,4.344,1111122 
TCOON,ioos:station:TCOON:068:1,2017-05-06T15:24:00Z,27.2970,-97.4049,4.344,1111122 
TCOON,ioos:station:TCOON:068:1,2017-05-06T16:24:00Z,27.2970,-97.4049,4.329,1111122 
TCOON,ioos:station:TCOON:068:1,2017-05-06T17:24:00Z,27.2970,-97.4049,4.325,1111122 
TCOON,ioos:station:TCOON:068:1,2017-05-06T18:24:00Z,27.2970,-97.4049,4.319,1111122 
TCOON,ioos:station:TCOON:068:1,2017-05-06T19:30:00Z,27.2970,-97.4049,4.301,1111122 
TCOON,ioos:station:TCOON:068:1,2017-05-06T20:30:00Z,27.2970,-97.4049,4.29,1111122 
TCOON,ioos:station:TCOON:068:1,2017-05-06T21:24:00Z,27.2970,-97.4049,4.286,1111122 
TCOON,ioos:station:TCOON:068:1,2017-05-06T22:24:00Z,27.2970,-97.4049,4.286,1111122 
TCOON,ioos:station:TCOON:068:1,2017-05-06T23:24:00Z,27.2970,-97.4049,4.285,1111122 
TCOON,ioos:station:TCOON:068:1,2017-05-07T00:24:00Z,27.2970,-97.4049,4.278,1111122 
TCOON,ioos:station:TCOON:068:1,2017-05-07T01:24:00Z,27.2970,-97.4049,4.282,1111122 
TCOON,ioos:station:TCOON:068:1,2017-05-07T02:24:00Z,27.2970,-97.4049,4.296,1111122 
TCOON,ioos:station:TCOON:068:1,2017-05-07T03:24:00Z,27.2970,-97.4049,4.307,1111122 
TCOON,ioos:station:TCOON:068:1,2017-05-07T04:24:00Z,27.2970,-97.4049,4.307,1111122 
TCOON,ioos:station:TCOON:068:1,2017-05-07T05:36:00Z,27.2970,-97.4049,4.303,1111122 
TCOON,ioos:station:TCOON:068:1,2017-05-07T06:30:00Z,27.2970,-97.4049,4.299,1111122 
TCOON,ioos:station:TCOON:068:1,2017-05-07T07:30:00Z,27.2970,-97.4049,4.293,1111122 
TCOON,ioos:station:TCOON:068:1,2017-05-07T08:24:00Z,27.2970,-97.4049,4.291,1111122 
TCOON,ioos:station:TCOON:068:1,2017-05-07T09:30:00Z,27.2970,-97.4049,4.294,1111122 
TCOON,ioos:station:TCOON:068:1,2017-05-07T10:24:00Z,27.2970,-97.4049,4.293,1111122 
TCOON,ioos:station:TCOON:068:1,2017-05-07T11:24:00Z,27.2970,-97.4049,4.287,1111122 
TCOON,ioos:station:TCOON:068:1,2017-05-07T12:24:00Z,27.2970,-97.4049,4.283,1111122 
TCOON,ioos:station:TCOON:068:1,2017-05-07T13:24:00Z,27.2970,-97.4049,4.283,1111122 
TCOON,ioos:station:TCOON:068:1,2017-05-07T14:24:00Z,27.2970,-97.4049,4.282,1111122 
TCOON,ioos:station:TCOON:068:1,2017-05-07T15:24:00Z,27.2970,-97.4049,4.285,1111122 
TCOON,ioos:station:TCOON:068:1,2017-05-07T16:36:00Z,27.2970,-97.4049,4.264,1111122 
TCOON,ioos:station:TCOON:068:1,2017-05-07T17:30:00Z,27.2970,-97.4049,4.261,1111122 
TCOON,ioos:station:TCOON:068:1,2017-05-07T18:24:00Z,27.2970,-97.4049,4.256,1111122 
TCOON,ioos:station:TCOON:068:1,2017-05-07T19:24:00Z,27.2970,-97.4049,4.249,1111122 
TCOON,ioos:station:TCOON:068:1,2017-05-07T20:30:00Z,27.2970,-97.4049,4.251,1111122 
TCOON,ioos:station:TCOON:068:1,2017-05-07T21:24:00Z,27.2970,-97.4049,4.243,1111122 
TCOON,ioos:station:TCOON:068:1,2017-05-07T22:24:00Z,27.2970,-97.4049,4.239,1111122 
TCOON,ioos:station:TCOON:068:1,2017-05-07T23:24:00Z,27.2970,-97.4049,4.234,1111122 
TCOON,ioos:station:TCOON:068:1,2017-05-08T00:24:00Z,27.2970,-97.4049,4.225,1111122 
TCOON,ioos:station:TCOON:068:1,2017-05-08T01:24:00Z,27.2970,-97.4049,4.219,1111122 
TCOON,ioos:station:TCOON:068:1,2017-05-08T02:24:00Z,27.2970,-97.4049,4.234,1111122 
TCOON,ioos:station:TCOON:068:1,2017-05-08T03:42:00Z,27.2970,-97.4049,4.244,1111122 
TCOON,ioos:station:TCOON:068:1,2017-05-08T04:30:00Z,27.2970,-97.4049,4.244,1111122 
TCOON,ioos:station:TCOON:068:1,2017-05-08T05:30:00Z,27.2970,-97.4049,4.248,1111122 
TCOON,ioos:station:TCOON:068:1,2017-05-08T06:24:00Z,27.2970,-97.4049,4.248,1111122 
TCOON,ioos:station:TCOON:068:1,2017-05-08T07:24:00Z,27.2970,-97.4049,4.241,1111122 
TCOON,ioos:station:TCOON:068:1,2017-05-08T08:24:00Z,27.2970,-97.4049,4.238,1111122 
TCOON,ioos:station:TCOON:068:1,2017-05-08T09:24:00Z,27.2970,-97.4049,4.239,1111122 
TCOON,ioos:station:TCOON:068:1,2017-05-08T10:24:00Z,27.2970,-97.4049,4.241,1111122 
TCOON,ioos:station:TCOON:068:1,2017-05-08T11:24:00Z,27.2970,-97.4049,4.242,1111122 
TCOON,ioos:station:TCOON:068:1,2017-05-08T12:24:00Z,27.2970,-97.4049,4.238,1111122 
TCOON,ioos:station:TCOON:068:1,2017-05-08T13:24:00Z,27.2970,-97.4049,4.232,1111122 
TCOON,ioos:station:TCOON:068:1,2017-05-08T14:30:00Z,27.2970,-97.4049,4.219,1111122 
TCOON,ioos:station:TCOON:068:1,2017-05-08T15:24:00Z,27.2970,-97.4049,4.21,1111122 
TCOON,ioos:station:TCOON:068:1,2017-05-08T16:24:00Z,27.2970,-97.4049,4.194,1111122 
TCOON,ioos:station:TCOON:068:1,2017-05-08T17:30:00Z,27.2970,-97.4049,4.197,1111122 
TCOON,ioos:station:TCOON:068:1,2017-05-08T18:24:00Z,27.2970,-97.4049,4.195,1111122 
TCOON,ioos:station:TCOON:068:1,2017-05-08T19:24:00Z,27.2970,-97.4049,4.183,1111122 
TCOON,ioos:station:TCOON:068:1,2017-05-08T20:24:00Z,27.2970,-97.4049,4.183,1111122 
TCOON,ioos:station:TCOON:068:1,2017-05-08T21:24:00Z,27.2970,-97.4049,4.187,1111122 
TCOON,ioos:station:TCOON:068:1,2017-05-08T22:24:00Z,27.2970,-97.4049,4.177,1111122 
TCOON,ioos:station:TCOON:068:1,2017-05-08T23:24:00Z,27.2970,-97.4049,4.182,1111122 
TCOON,ioos:station:TCOON:068:1,2017-05-09T00:42:00Z,27.2970,-97.4049,4.185,1111122 
TCOON,ioos:station:TCOON:068:1,2017-05-09T01:30:00Z,27.2970,-97.4049,4.188,1111122 
TCOON,ioos:station:TCOON:068:1,2017-05-09T02:24:00Z,27.2970,-97.4049,4.195,1111122 
TCOON,ioos:station:TCOON:068:1,2017-05-09T03:24:00Z,27.2970,-97.4049,4.204,1111122 
TCOON,ioos:station:TCOON:068:1,2017-05-09T04:24:00Z,27.2970,-97.4049,4.209,1111122 
TCOON,ioos:station:TCOON:068:1,2017-05-09T05:24:00Z,27.2970,-97.4049,4.21,1111122 
TCOON,ioos:station:TCOON:068:1,2017-05-09T06:24:00Z,27.2970,-97.4049,4.213,1111122 
TCOON,ioos:station:TCOON:068:1,2017-05-09T07:24:00Z,27.2970,-97.4049,4.213,1111122 
TCOON,ioos:station:TCOON:068:1,2017-05-09T08:24:00Z,27.2970,-97.4049,4.212,1111122 
TCOON,ioos:station:TCOON:068:1,2017-05-09T09:24:00Z,27.2970,-97.4049,4.211,1111122 
TCOON,ioos:station:TCOON:068:1,2017-05-09T10:24:00Z,27.2970,-97.4049,4.215,1111122 
TCOON,ioos:station:TCOON:068:1,2017-05-09T11:24:00Z,27.2970,-97.4049,4.211,1111122 
TCOON,ioos:station:TCOON:068:1,2017-05-09T12:36:00Z,27.2970,-97.4049,4.201,1111122 
TCOON,ioos:station:TCOON:068:1,2017-05-09T13:42:00Z,27.2970,-97.4049,4.199,1111122 
TCOON,ioos:station:TCOON:068:1,2017-05-09T14:24:00Z,27.2970,-97.4049,4.194,1111122 
TCOON,ioos:station:TCOON:068:1,2017-05-09T15:24:00Z,27.2970,-97.4049,4.185,1111122 
TCOON,ioos:station:TCOON:068:1,2017-05-09T16:18:00Z,27.2970,-97.4049,4.182,1111122 
TCOON,ioos:station:TCOON:068:1,2017-05-09T17:18:00Z,27.2970,-97.4049,4.177,1111122 
TCOON,ioos:station:TCOON:068:1,2017-05-09T18:18:00Z,27.2970,-97.4049,4.166,1111122 
TCOON,ioos:station:TCOON:068:1,2017-05-09T19:18:00Z,27.2970,-97.4049,4.15,1111122 
TCOON,ioos:station:TCOON:068:1,2017-05-09T20:18:00Z,27.2970,-97.4049,4.143,1111122 
TCOON,ioos:station:TCOON:068:1,2017-05-09T21:18:00Z,27.2970,-97.4049,4.14,1111122 
TCOON,ioos:station:TCOON:068:1,2017-05-09T22:18:00Z,27.2970,-97.4049,4.137,1111122 
TCOON,ioos:station:TCOON:068:1,2017-05-09T23:18:00Z,27.2970,-97.4049,4.139,1111122 
TCOON,ioos:station:TCOON:068:1,2017-05-10T00:18:00Z,27.2970,-97.4049,4.145,1111122 
TCOON,ioos:station:TCOON:068:1,2017-05-10T01:18:00Z,27.2970,-97.4049,4.152,1111122 
TCOON,ioos:station:TCOON:068:1,2017-05-10T02:18:00Z,27.2970,-97.4049,4.177,1111122 
TCOON,ioos:station:TCOON:068:1,2017-05-10T03:18:00Z,27.2970,-97.4049,4.212,1111122 
TCOON,ioos:station:TCOON:068:1,2017-05-10T04:18:00Z,27.2970,-97.4049,4.189,1111122 
TCOON,ioos:station:TCOON:068:1,2017-05-10T05:18:00Z,27.2970,-97.4049,4.192,1111122 
TCOON,ioos:station:TCOON:068:1,2017-05-10T06:18:00Z,27.2970,-97.4049,4.195,1111122 
TCOON,ioos:station:TCOON:068:1,2017-05-10T07:18:00Z,27.2970,-97.4049,4.189,1111122 
TCOON,ioos:station:TCOON:068:1,2017-05-10T08:18:00Z,27.2970,-97.4049,4.195,1111122 
TCOON,ioos:station:TCOON:068:1,2017-05-10T09:18:00Z,27.2970,-97.4049,4.197,1111122 
TCOON,ioos:station:TCOON:068:1,2017-05-10T10:18:00Z,27.2970,-97.4049,4.193,1111122 
TCOON,ioos:station:TCOON:068:1,2017-05-10T11:18:00Z,27.2970,-97.4049,4.171,1111122 
TCOON,ioos:station:TCOON:068:1,2017-05-10T12:18:00Z,27.2970,-97.4049,4.176,1111122 
TCOON,ioos:station:TCOON:068:1,2017-05-10T13:18:00Z,27.2970,-97.4049,4.186,1111122 
TCOON,ioos:station:TCOON:068:1,2017-05-10T14:18:00Z,27.2970,-97.4049,4.18,1111122 
TCOON,ioos:station:TCOON:068:1,2017-05-10T15:18:00Z,27.2970,-97.4049,4.17,1111122 
TCOON,ioos:station:TCOON:068:1,2017-05-10T16:18:00Z,27.2970,-97.4049,4.16,1111122 
TCOON,ioos:station:TCOON:068:1,2017-05-10T17:18:00Z,27.2970,-97.4049,4.153,1111122 
TCOON,ioos:station:TCOON:068:1,2017-05-10T18:42:00Z,27.2970,-97.4049,4.136,1111122 
TCOON,ioos:station:TCOON:068:1,2017-05-10T19:18:00Z,27.2970,-97.4049,4.127,1111122 
TCOON,ioos:station:TCOON:068:1,2017-05-10T20:18:00Z,27.2970,-97.4049,4.121,1111122 
TCOON,ioos:station:TCOON:068:1,2017-05-10T21:18:00Z,27.2970,-97.4049,4.114,1111122 
TCOON,ioos:station:TCOON:068:1,2017-05-10T22:18:00Z,27.2970,-97.4049,4.119,1111122 
TCOON,ioos:station:TCOON:068:1,2017-05-10T23:18:00Z,27.2970,-97.4049,4.131,1111122 
TCOON,ioos:station:TCOON:068:1,2017-05-11T00:18:00Z,27.2970,-97.4049,4.143,1111122 
TCOON,ioos:station:TCOON:068:1,2017-05-11T01:18:00Z,27.2970,-97.4049,4.157,1111122 
TCOON,ioos:station:TCOON:068:1,2017-05-11T02:18:00Z,27.2970,-97.4049,4.169,1111122 
TCOON,ioos:station:TCOON:068:1,2017-05-11T03:18:00Z,27.2970,-97.4049,4.178,1111122 
TCOON,ioos:station:TCOON:068:1,2017-05-11T04:18:00Z,27.2970,-97.4049,4.183,1111122 
TCOON,ioos:station:TCOON:068:1,2017-05-11T05:18:00Z,27.2970,-97.4049,4.162,1111122 
TCOON,ioos:station:TCOON:068:1,2017-05-11T06:18:00Z,27.2970,-97.4049,4.17,1111122 
TCOON,ioos:station:TCOON:068:1,2017-05-11T07:18:00Z,27.2970,-97.4049,4.169,1111122 
TCOON,ioos:station:TCOON:068:1,2017-05-11T08:18:00Z,27.2970,-97.4049,4.16,1111122 
TCOON,ioos:station:TCOON:068:1,2017-05-11T09:18:00Z,27.2970,-97.4049,4.17,1111122 
TCOON,ioos:station:TCOON:068:1,2017-05-11T10:18:00Z,27.2970,-97.4049,4.171,1111122 
TCOON,ioos:station:TCOON:068:1,2017-05-11T11:18:00Z,27.2970,-97.4049,4.18,1111122 
TCOON,ioos:station:TCOON:068:1,2017-05-11T12:18:00Z,27.2970,-97.4049,4.19,1111122 
TCOON,ioos:station:TCOON:068:1,2017-05-11T13:18:00Z,27.2970,-97.4049,4.191,1111122 
TCOON,ioos:station:TCOON:068:1,2017-05-11T14:18:00Z,27.2970,-97.4049,4.186,1111122 
TCOON,ioos:station:TCOON:068:1,2017-05-11T15:18:00Z,27.2970,-97.4049,4.169,1111122 
TCOON,ioos:station:TCOON:068:1,2017-05-11T16:18:00Z,27.2970,-97.4049,4.161,1111122 
TCOON,ioos:station:TCOON:068:1,2017-05-11T17:18:00Z,27.2970,-97.4049,4.157,1111122 
TCOON,ioos:station:TCOON:068:1,2017-05-11T18:18:00Z,27.2970,-97.4049,4.15,1111122 
TCOON,ioos:station:TCOON:068:1,2017-05-11T19:18:00Z,27.2970,-97.4049,4.141,1111122 
TCOON,ioos:station:TCOON:068:1,2017-05-11T20:18:00Z,27.2970,-97.4049,4.135,1111122 
TCOON,ioos:station:TCOON:068:1,2017-05-11T21:18:00Z,27.2970,-97.4049,4.147,1111122 
TCOON,ioos:station:TCOON:068:1,2017-05-11T22:18:00Z,27.2970,-97.4049,4.158,1111122 
TCOON,ioos:station:TCOON:068:1,2017-05-11T23:18:00Z,27.2970,-97.4049,4.175,1111122 
TCOON,ioos:station:TCOON:068:1,2017-05-12T00:18:00Z,27.2970,-97.4049,4.185,1111122 
TCOON,ioos:station:TCOON:068:1,2017-05-12T01:18:00Z,27.2970,-97.4049,4.191,1111122 
TCOON,ioos:station:TCOON:068:1,2017-05-12T02:18:00Z,27.2970,-97.4049,4.202,1111122 
TCOON,ioos:station:TCOON:068:1,2017-05-12T03:18:00Z,27.2970,-97.4049,4.206,1111122 
TCOON,ioos:station:TCOON:068:1,2017-05-12T04:18:00Z,27.2970,-97.4049,4.21,1111122 
TCOON,ioos:station:TCOON:068:1,2017-05-12T05:18:00Z,27.2970,-97.4049,4.213,1111122 
TCOON,ioos:station:TCOON:068:1,2017-05-12T06:18:00Z,27.2970,-97.4049,4.212,1111122 
TCOON,ioos:station:TCOON:068:1,2017-05-12T07:18:00Z,27.2970,-97.4049,4.207,1111122 
TCOON,ioos:station:TCOON:068:1,2017-05-12T08:18:00Z,27.2970,-97.4049,4.191,1111122 
TCOON,ioos:station:TCOON:068:1,2017-05-12T09:18:00Z,27.2970,-97.4049,4.202,1111122 
TCOON,ioos:station:TCOON:068:1,2017-05-12T10:18:00Z,27.2970,-97.4049,4.206,1111122 
TCOON,ioos:station:TCOON:068:1,2017-05-12T11:18:00Z,27.2970,-97.4049,4.206,1111122 
TCOON,ioos:station:TCOON:068:1,2017-05-12T12:18:00Z,27.2970,-97.4049,4.204,1111122 
TCOON,ioos:station:TCOON:068:1,2017-05-12T13:18:00Z,27.2970,-97.4049,4.199,1111122 
TCOON,ioos:station:TCOON:068:1,2017-05-12T14:24:00Z,27.2970,-97.4049,4.198,1111122 
TCOON,ioos:station:TCOON:068:1,2017-05-12T15:24:00Z,27.2970,-97.4049,4.211,1111122 
TCOON,ioos:station:TCOON:068:1,2017-05-12T16:18:00Z,27.2970,-97.4049,4.212,1111122 
TCOON,ioos:station:TCOON:068:1,2017-05-12T17:18:00Z,27.2970,-97.4049,4.198,1111122 
TCOON,ioos:station:TCOON:068:1,2017-05-12T18:18:00Z,27.2970,-97.4049,4.21,1111122 
TCOON,ioos:station:TCOON:068:1,2017-05-12T19:30:00Z,27.2970,-97.4049,4.183,1111122 
TCOON,ioos:station:TCOON:068:1,2017-05-12T20:18:00Z,27.2970,-97.4049,4.167,1111122 
TCOON,ioos:station:TCOON:068:1,2017-05-12T21:18:00Z,27.2970,-97.4049,4.165,1111122 
TCOON,ioos:station:TCOON:068:1,2017-05-12T22:18:00Z,27.2970,-97.4049,4.181,1111122 
TCOON,ioos:station:TCOON:068:1,2017-05-14T14:18:00Z,27.2970,-97.4049,4.192,1111122 
TCOON,ioos:station:TCOON:068:1,2017-05-14T15:18:00Z,27.2970,-97.4049,4.179,1111122 
TCOON,ioos:station:TCOON:068:1,2017-05-14T16:24:00Z,27.2970,-97.4049,4.179,1111122 
TCOON,ioos:station:TCOON:068:1,2017-05-14T17:36:00Z,27.2970,-97.4049,4.175,1111122 
TCOON,ioos:station:TCOON:068:1,2017-05-14T18:36:00Z,27.2970,-97.4049,4.169,1111122 